Overview Statistics Trail Chart Weather Telemetry Raw packets
 

This is the latest recevied weather packets stored in our database for station/object DB0KE-10. If no packets are shown the sender has not sent any weather packets the latest 10 day(s).

<< 4 5 6 7 8 9 10 >>
Time Temp. Humidity Pressure Rain* Wind** Luminosity Snow
1787966841 27.22° C 41% 1024.6 hPa - - - -
1787965941 27.22° C 40% 1024.6 hPa - - - -
1787965041 27.22° C 40% 1024.8 hPa - - - -
1787964141 27.22° C 39% 1024.8 hPa - - - -
1787963240 27.78° C 40% 1024.9 hPa - - - -
1787962340 27.78° C 40% 1024.9 hPa - - - -
1787961440 27.78° C 39% 1025 hPa - - - -
1787960540 28.33° C 40% 1025.1 hPa - - - -
1787959640 28.33° C 40% 1025.1 hPa - - - -
1787958739 28.89° C 40% 1025 hPa - - - -
1787957839 29.44° C 40% 1025 hPa - - - -
1787957005 29.44° C 41% 1025.2 hPa - - - -
1787956105 28.89° C 42% 1025 hPa - - - -
1787955205 28.89° C 41% 1024.8 hPa - - - -
1787954304 28.89° C 41% 1024.7 hPa - - - -
1787953404 28.89° C 42% 1025 hPa - - - -
1787952504 28.89° C 42% 1024.9 hPa - - - -
1787951608 28.89° C 41% 1024.7 hPa - - - -
1787950704 28.33° C 41% 1025.2 hPa - - - -
1787949804 28.33° C 41% 1025.8 hPa - - - -
1787948904 28.89° C 41% 1025.7 hPa - - - -
1787948004 28.89° C 41% 1025.1 hPa - - - -
1787947104 28.89° C 41% 1025.3 hPa - - - -
1787946204 28.89° C 41% 1025.3 hPa - - - -
1787945304 29.44° C 40% 1023.6 hPa - - - -

* Rain since midnight (hover to see other rain measurements)
** Current wind speed in m/s (hover to see current wind gust speed)